Waarnemingen

Advertentie
Mijn weer
Bujaraloz, Spanje (8165): temperatuur & dauwpunt: 21.02.2020 01:00:00 - 27.02.2020 01:00:00 (CET)Bujaraloz, Spanje (8165): windsnelheid & windstoten: 21.02.2020 01:00:00 - 27.02.2020 01:00:00 (CET)Bujaraloz, Spanje (8165): windrichting: 21.02.2020 01:00:00 - 27.02.2020 01:00:00 (CET)Bujaraloz, Spanje (8165): luchtdruk: 21.02.2020 01:00:00 - 27.02.2020 01:00:00 (CET)Bujaraloz, Spanje (8165): zicht: 21.02.2020 01:00:00 - 27.02.2020 01:00:00 (CET)Bujaraloz, Spanje (8165): Zonneschijnduur: 21.02.2020 01:00:00 - 27.02.2020 01:00:00 (CET)Bujaraloz, Spanje (8165): neerslag: 21.02.2020 01:00:00 - 27.02.2020 01:00:00 (CET)
Datum & Tijd tt [°C] td [°C] ff [km/u] ff [kn] fx [km/u] fx [kn] dd ppp [hPa] vv [km] sd [min] rr [mm]
27.02.2020 01:00:00 - - - - - - - - - - -
27.02.2020 00:00:00 7,7 2,5 24 13 35 19 W 1019,7 20 0 0,0
26.02.2020 23:00:00 8,6 2,5 24 13 35 19 W 1019,6 20 0 0,0
26.02.2020 22:00:00 9,6 2,3 31 17 44 24 W 1019,0 20 0 0,0
26.02.2020 21:00:00 10,4 2,3 34 18 44 24 WNW 1018,8 20 0 0,0
26.02.2020 20:00:00 11,5 1,7 29 16 38 21 NW 1018,4 20 0 0,0
26.02.2020 19:00:00 12,7 1,9 25 13 44 24 NNW 1017,9 20 38 -
26.02.2020 18:00:00 14,0 0,9 35 19 62 34 NW 1017,0 20 60 0,0
26.02.2020 17:00:00 14,6 0,4 43 23 67 36 NNW 1016,5 20 60 0,0
26.02.2020 16:00:00 14,9 0,6 46 25 65 35 NW 1016,7 20 60 0,0
26.02.2020 15:00:00 15,1 1,7 50 27 67 36 NNW 1016,7 20 56 0,0
26.02.2020 14:00:00 14,3 1,5 40 21 68 37 NW 1017,6 20 43 0,0
26.02.2020 13:00:00 13,6 1,5 50 27 76 41 WNW 1018,4 20 45 -
26.02.2020 12:00:00 13,0 1,3 39 21 58 32 WNW 1019,0 20 56 0,0
26.02.2020 11:00:00 12,1 1,1 43 23 57 31 WNW 1019,0 20 60 0,0
26.02.2020 10:00:00 11,3 2,3 23 13 49 26 W 1018,9 20 60 0,0
26.02.2020 09:00:00 9,8 1,9 32 18 49 26 W 1018,3 20 24 0,0
26.02.2020 08:00:00 9,2 2,5 34 18 45 24 W 1017,3 20 0 0,0
26.02.2020 07:00:00 10,0 3,4 34 19 45 25 WNW 1017,2 20 0 -
26.02.2020 06:00:00 10,4 3,2 29 16 39 21 WNW 1016,7 20 0 0,0
26.02.2020 05:00:00 10,8 3,4 26 14 41 22 WNW 1016,5 20 0 0,0
26.02.2020 04:00:00 10,6 4,6 20 11 29 16 W 1016,3 20 0 0,0
26.02.2020 03:00:00 11,1 5,0 21 11 37 20 W 1016,5 20 0 0,0
26.02.2020 02:00:00 11,8 5,5 29 16 41 22 W 1016,3 20 0 0,0
26.02.2020 01:00:00 12,3 5,9 29 16 39 21 WNW 1016,0 20 0 -
26.02.2020 00:00:00 11,6 6,7 25 14 32 18 WNW 1016,4 20 0 0,0
25.02.2020 23:00:00 11,9 6,2 29 16 35 19 W 1015,9 20 0 0,0
25.02.2020 22:00:00 11,9 5,5 24 13 29 16 W 1015,7 20 0 0,0
25.02.2020 21:00:00 13,2 4,8 24 13 27 15 W 1015,1 20 0 0,0
25.02.2020 20:00:00 14,4 4,1 20 11 28 15 W 1014,8 20 0 0,0
25.02.2020 19:00:00 15,7 3,8 16 9 29 16 W 1013,9 20 1 -
25.02.2020 18:00:00 18,0 3,4 28 15 48 26 WNW 1013,4 20 59 0,0
25.02.2020 17:00:00 18,7 2,1 28 15 40 21 WNW 1013,3 20 60 0,0
25.02.2020 16:00:00 18,1 1,9 30 16 48 26 NW 1013,6 20 60 0,0
25.02.2020 15:00:00 18,2 2,5 29 16 44 24 WNW 1014,1 20 60 0,0
25.02.2020 14:00:00 17,1 2,7 31 17 45 24 WNW 1015,3 20 59 0,0
25.02.2020 13:00:00 16,2 3,9 35 19 51 28 W 1015,8 20 47 -
25.02.2020 12:00:00 13,0 3,9 34 18 43 23 W 1016,6 20 29 0,0
25.02.2020 11:00:00 8,3 3,9 21 11 36 20 W 1017,5 20 14 0,0
25.02.2020 10:00:00 4,7 3,6 14 7 22 12 W 1018,0 20 1 0,0
25.02.2020 09:00:00 3,6 3,6 7 4 10 5 WNW 1017,5 0,9 11 0,0
25.02.2020 08:00:00 4,3 4,3 4 2 10 5 NNO 1017,0 1,7 1 0,0
25.02.2020 07:00:00 4,5 4,5 7 4 9 5 OZO 1016,8 6 0 -
25.02.2020 06:00:00 5,8 4,1 3 2 8 4 OZO 1017,0 7 0 0,0
25.02.2020 05:00:00 6,2 3,9 2 1 6 3 WNW 1017,2 13 0 0,0
25.02.2020 04:00:00 7,8 3,2 3 2 6 3 ZW 1017,5 20 0 0,0
25.02.2020 03:00:00 8,4 3,4 3 2 6 3 W 1018,1 20 0 0,0
25.02.2020 02:00:00 9,5 3,9 4 2 7 4 N 1018,3 20 0 0,0
25.02.2020 01:00:00 9,9 4,1 4 2 11 6 NNW 1018,9 20 0 -
25.02.2020 00:00:00 11,0 3,6 8 4 11 6 WNW 1019,3 20 0 0,0
24.02.2020 23:00:00 12,5 3,4 1 0 5 3 ZW 1019,5 20 0 0,0
24.02.2020 22:00:00 13,6 3,6 1 1 8 5 NW 1019,5 20 0 0,0
24.02.2020 21:00:00 14,8 3,6 3 1 15 8 Z 1019,3 20 0 0,0
24.02.2020 20:00:00 16,7 2,7 13 7 18 10 ZW 1019,1 20 0 0,0
24.02.2020 19:00:00 17,7 3,9 16 9 18 10 W 1019,1 20 37 -
24.02.2020 18:00:00 19,4 3,9 12 6 17 9 WZW 1019,0 20 60 0,0
24.02.2020 17:00:00 20,6 2,5 7 4 14 8 WZW 1019,7 20 60 0,0
24.02.2020 16:00:00 19,7 1,7 8 4 14 8 W 1020,8 20 60 0,0
24.02.2020 15:00:00 18,4 3,0 5 3 13 7 WNW 1022,0 20 60 0,0
24.02.2020 14:00:00 16,3 3,8 5 3 13 7 NW 1023,5 20 60 0,0
24.02.2020 13:00:00 14,3 3,8 9 5 15 8 W 1025,1 20 60 -
24.02.2020 12:00:00 11,8 5,1 6 3 12 6 W 1026,4 19 60 0,0
24.02.2020 11:00:00 7,8 4,8 3 2 9 5 WNW 1027,7 18 60 0,0
24.02.2020 10:00:00 5,0 3,4 2 1 6 4 WNW 1028,5 20 59 0,0
24.02.2020 09:00:00 1,8 1,9 4 2 9 5 N 1028,8 0,9 50 0,0
24.02.2020 08:00:00 2,9 2,9 4 2 7 4 WZW 1028,6 7 2 0,0
24.02.2020 07:00:00 3,6 3,6 6 3 7 4 WNW 1028,5 0,2 0 -
24.02.2020 06:00:00 4,8 4,8 1 0 3 2 WZW 1028,4 7 0 0,0
24.02.2020 05:00:00 5,2 5,1 4 2 6 3 N 1028,4 14 0 0,0
24.02.2020 04:00:00 6,5 5,1 3 1 7 4 O 1028,5 19 0 0,0
24.02.2020 03:00:00 6,8 5,8 6 3 8 5 O 1028,9 20 0 0,0
24.02.2020 02:00:00 8,0 4,3 2 1 3 2 WNW 1029,1 20 0 0,0
24.02.2020 01:00:00 9,3 4,3 2 1 9 5 NNO 1029,5 20 0 -
24.02.2020 00:00:00 9,0 4,8 9 5 10 6 N 1029,6 20 0 0,0
23.02.2020 23:00:00 11,0 4,3 1 1 7 4 NO 1029,5 20 0 0,0
23.02.2020 22:00:00 13,9 3,6 4 2 7 4 OZO 1029,1 20 0 0,0
23.02.2020 21:00:00 14,8 3,6 3 2 7 4 OZO 1028,8 20 0 0,0
23.02.2020 20:00:00 16,2 4,8 6 4 16 8 WZW 1028,7 20 0 0,0
23.02.2020 19:00:00 17,1 4,8 14 7 17 9 WZW 1028,2 20 39 -
23.02.2020 18:00:00 18,7 4,8 11 6 15 8 WZW 1028,2 20 60 0,0
23.02.2020 17:00:00 19,8 3,9 11 6 17 9 WZW 1028,3 20 60 0,0
23.02.2020 16:00:00 19,2 5,0 10 5 16 9 W 1029,0 20 60 0,0
23.02.2020 15:00:00 17,9 5,1 8 5 16 8 WNW 1030,0 20 60 0,0
23.02.2020 14:00:00 15,9 5,8 7 4 16 9 WNW 1031,2 13 60 0,0
23.02.2020 13:00:00 14,4 6,5 10 5 14 8 W 1032,5 20 60 -
23.02.2020 12:00:00 9,7 6,4 5 3 11 6 NNO 1033,9 20 60 0,0
23.02.2020 11:00:00 7,7 5,5 5 3 11 6 WNW 1034,5 20 60 0,0
23.02.2020 10:00:00 5,5 4,5 5 3 9 5 W 1034,7 18 58 0,0
23.02.2020 09:00:00 4,1 4,1 2 1 8 4 WNW - - 42 0,0
23.02.2020 08:00:00 3,6 3,6 8 4 10 5 N 1033,9 1,2 0 0,0
23.02.2020 07:00:00 3,1 3,0 5 3 9 5 NW 1033,5 0,7 0 -
23.02.2020 06:00:00 4,9 4,8 3 1 8 5 ZW 1033,3 10 0 0,0
23.02.2020 05:00:00 5,8 5,8 4 2 8 4 WNW 1032,9 6 0 0,0
23.02.2020 04:00:00 5,0 3,6 7 4 11 6 NW 1033,1 13 0 0,0
23.02.2020 03:00:00 5,7 5,0 8 4 14 8 NNW 1033,1 10 0 0,0
23.02.2020 02:00:00 7,4 4,5 5 3 11 6 ZO 1033,1 19 0 0,0
23.02.2020 01:00:00 8,3 5,0 6 3 10 6 O 1032,9 20 0 -
23.02.2020 00:00:00 8,9 5,3 3 1 16 9 O 1032,5 20 0 0,0
22.02.2020 23:00:00 10,1 4,5 6 3 12 7 NNW 1032,4 20 0 0,0
22.02.2020 22:00:00 10,4 4,5 8 4 16 9 ZO 1032,4 20 0 0,0
22.02.2020 21:00:00 13,0 5,1 9 5 12 7 O 1031,6 20 0 0,0
22.02.2020 20:00:00 15,0 3,8 7 4 10 5 ZZO 1030,7 20 0 0,0
22.02.2020 19:00:00 16,6 3,9 7 4 9 5 O 1030,1 20 29 -
22.02.2020 18:00:00 17,8 3,9 3 1 11 6 NNW 1029,7 20 60 0,0
22.02.2020 17:00:00 18,8 3,8 7 4 22 12 WZW 1029,4 20 60 0,0
22.02.2020 16:00:00 17,8 3,2 15 8 22 12 NW 1029,6 20 60 0,0
22.02.2020 15:00:00 17,3 3,9 7 4 18 10 W 1029,6 20 60 0,0
22.02.2020 14:00:00 16,2 5,5 9 5 14 8 W 1030,3 20 60 0,0
22.02.2020 13:00:00 13,3 5,0 6 4 13 7 W 1031,8 20 60 -
22.02.2020 12:00:00 11,0 5,8 5 3 10 5 W 1032,6 20 60 0,0
22.02.2020 11:00:00 5,7 5,8 5 3 8 4 NW 1032,7 20 60 0,0
22.02.2020 10:00:00 3,4 3,4 2 1 6 3 N 1032,4 0,1 60 0,0
22.02.2020 09:00:00 2,3 2,3 2 1 5 3 NW 1031,9 0,2 43 0,0
22.02.2020 08:00:00 3,6 3,6 1 1 6 4 ZW 1031,0 7 0 0,0
22.02.2020 07:00:00 2,8 2,9 5 3 7 4 NNO 1030,3 0,2 0 -
22.02.2020 06:00:00 4,8 3,8 4 2 5 3 Z 1029,7 20 0 0,0
22.02.2020 05:00:00 5,6 4,8 3 1 8 5 Z 1029,4 7 0 0,0
22.02.2020 04:00:00 5,3 5,0 7 4 8 4 O 1029,4 10 0 0,0
22.02.2020 03:00:00 5,9 4,8 4 2 8 5 N 1029,3 20 0 0,0
22.02.2020 02:00:00 7,3 4,8 3 2 7 4 NNW 1029,3 20 0 0,0
22.02.2020 01:00:00 6,9 5,0 3 2 10 5 W 1029,4 20 0 -
22.02.2020 00:00:00 7,7 4,6 9 5 10 5 WNW 1029,2 20 0 0,0
21.02.2020 23:00:00 9,1 5,5 5 3 8 4 WNW 1028,9 20 0 0,0
21.02.2020 22:00:00 11,4 5,3 4 2 9 5 NO 1028,2 20 0 0,0
21.02.2020 21:00:00 11,4 5,5 5 3 9 5 O 1027,8 20 0 0,0
21.02.2020 20:00:00 14,1 5,0 9 5 11 6 ZZW 1027,3 20 0 0,0
21.02.2020 19:00:00 14,8 5,0 9 5 9 5 ZZW 1026,7 20 35 -
21.02.2020 18:00:00 16,5 5,5 6 4 14 7 WZW 1026,6 20 60 0,0
21.02.2020 17:00:00 16,9 5,1 6 3 19 10 W 1026,9 20 60 0,0
21.02.2020 16:00:00 15,8 5,1 12 6 24 13 WNW 1027,4 20 60 0,0
21.02.2020 15:00:00 15,0 5,0 14 7 24 13 W 1027,9 20 60 0,0
21.02.2020 14:00:00 14,0 5,1 15 8 28 15 WNW 1028,9 20 60 0,0
21.02.2020 13:00:00 12,9 4,8 17 9 31 17 WNW 1029,9 20 60 -
21.02.2020 12:00:00 11,2 4,1 12 7 21 12 W 1030,7 20 60 0,0
21.02.2020 11:00:00 9,1 4,1 9 5 14 8 W 1030,8 20 60 0,0
21.02.2020 10:00:00 7,0 3,6 2 1 5 3 ZW 1030,7 18 50 0,0
21.02.2020 09:00:00 4,6 2,9 3 2 12 6 NW 1030,2 17 40 0,0
21.02.2020 08:00:00 5,4 1,7 11 6 18 10 W 1029,4 20 0 0,0
21.02.2020 07:00:00 5,6 2,5 14 8 17 9 WZW 1028,9 20 0 -
21.02.2020 06:00:00 6,2 2,3 13 7 23 12 W 1028,5 20 0 0,0
21.02.2020 05:00:00 6,8 2,7 18 10 22 12 W 1028,2 20 0 0,0
21.02.2020 04:00:00 6,2 2,7 16 9 31 17 WZW 1028,1 20 0 0,0
21.02.2020 03:00:00 6,6 2,1 16 9 20 11 WZW 1028,1 20 0 0,0
21.02.2020 02:00:00 6,4 2,5 15 8 21 11 W 1027,6 20 0 0,0
21.02.2020 01:00:00 5,3 3,0 19 10 22 12 W 1027,1 20 0 -

tt = temperatuur
td = dauwpunt
ff = windsnelheid
fx = windstoten
dd = windrichting
ppp = luchtdruk
vv = zicht
sd = Zonneschijnduur
rr = neerslag

Weerstations in de omgeving